Location: Ay?beleni
(36.6500°N, 30.3000°E)
Time: 04:19:14
(UTC+00:00)

IRS-1C Rocket - Pass Details

Date: 16 October 2021
Orbit: 800 x 805 km, 98.9° (Epoch: 08 December)

Event Time Altitude Azimuth Distance (km) Brightness Sun altitude
Exits shadow 17:08:19 15° 164° (SSE) 2,065 6.0 -22.3°
Maximum altitude 17:12:47 87° 78° (ENE) 808 4.0 -23.2°
Drops below altitude 10° 17:18:04 10° 347° (NNW) 2,385 6.8 -24.2°
Sets 17:20:24 0° 348° (NNW) 3,320 7.5 -24.7°
